[[{"header":{"parameterUnit":"m.s-1","parameterCategory":1,"la1":30.2991,"la2":30.254,"lo1":-89.0895,"lo2":-89.0444,"dy":0.0017,"dx":0.0017,"nx":28,"ny":28,"refTime":"2023-08-24T03:00:00:Z","depth":0,"parameterNumber":2,"parameterNumberName":"U-component_of_WINDS"},"data":[0,0,0,0,0,0,0,0,0,0,0,0,0,0,0,0,0,0,0,0,0,0,0,0,0,0,0,0,0,0,0,0,0,0,0,0,0,0,0,0,0,0,0,0,0,0,0,0,0,0,0,0,0,0,0,0,0,0,-2.7599,-2.7598,0,-2.7545,-2.7545,-2.7544,-2.7469,-2.7468,-2.7467,-2.7465,-2.7409,-2.7409,-2.7409,0,0,0,0,0,0,0,0,0,0,0,0,0,-2.7638,-2.7638,-2.7599,-2.7598,-2.7598,-2.7545,-2.7545,-2.7544,-2.7469,-2.7468,-2.7466,-2.7465,-2.7409,-2.7409,-2.7409,0,0,0,0,0,0,0,0,0,0,0,0,0,-2.7607,-2.7638,-2.7599,-2.7554,-2.755,-2.7545,-2.7545,-2.7544,-2.747,-2.7468,-2.7466,-2.7464,-2.741,-2.7409,-2.7409,-2.7444,0,0,-2.7407,-2.7407,0,0,0,0,0,0,0,0,-2.7609,-2.7605,-2.7561,-2.7557,-2.7552,-2.7512,-2.7538,-2.751,-2.747,-2.75,-2.7465,-2.7463,-2.7445,-2.7441,-2.7435,-2.7441,-2.7439,-2.7407,-2.7407,-2.7407,-2.7406,0,0,0,0,0,0,0,-2.7611,-2.7607,-2.7578,-2.7561,-2.7555,-2.7537,-2.7531,-2.7532,-2.7484,-2.7497,-2.7492,-2.7487,-2.7442,-2.7436,-2.7434,-2.7438,-2.7407,-2.7407,-2.7406,-2.7406,-2.7472,-2.7474,0,0,0,0,0,0,-2.762,-2.7609,-2.7579,-2.7576,-2.7576,-2.7538,-2.7531,-2.7527,-2.7483,-2.7475,-2.7488,-2.7483,-2.7438,-2.7434,-2.7431,-2.747,-2.7407,-2.7406,-2.7406,-2.747,-2.7473,-2.7475,0,0,0,0,0,0,-2.7621,-2.7618,-2.7581,-2.7591,-2.7585,-2.7539,-2.7536,-2.7527,-2.7521,-2.7477,-2.7468,-2.7491,-2.7436,-2.7432,-2.7442,-2.7467,-2.7406,-2.7406,-2.7468,-2.7471,-2.7474,-2.7548,0,0,0,0,0,0,-2.7622,-2.7619,-2.7631,-2.7592,-2.7585,-2.7592,-2.7537,-2.7527,-2.752,-2.7513,-2.7477,-2.7469,-2.7434,-2.7443,-2.7441,-2.7466,-2.7405,-2.7465,-2.7469,-2.7473,-2.7543,-2.7554,-2.7562,0,0,0,0,0,-2.7624,-2.7653,-2.7632,-2.7628,-2.7599,-2.7594,-2.759,-2.755,-2.7523,-2.7535,-2.7507,-2.747,-2.7466,-2.7445,-2.7442,-2.7467,-2.7463,-2.7468,-2.7473,-2.7539,-2.7552,-2.7562,0,0,0,0,0,0,-2.7694,-2.7647,-2.7623,-2.764,-2.7622,-2.7581,-2.7595,-2.7564,-2.7552,-2.7546,-2.7497,-2.749,-2.7506,-2.7487,-2.7465,-2.75,-2.7459,-2.7463,-2.7511,-2.7522,-2.7531,-2.7535,-2.7405,0,0,0,0,0,-2.7712,-2.7712,-2.767,-2.769,-2.7682,-2.7641,-2.7637,-2.7608,-2.7587,-2.7578,-2.7551,-2.7532,-2.7527,-2.7524,-2.7516,-2.7542,-2.7533,-2.7558,-2.7567,-2.7575,-2.7579,-2.7593,-2.7603,-2.749,-2.749,-2.749,0,0,-2.7748,-2.7722,-2.7724,-2.7703,-2.7686,-2.7687,-2.7634,-2.7637,-2.7638,-2.7579,-2.7586,-2.7567,-2.7542,-2.7561,-2.7567,-2.7546,-2.7609,-2.7581,-2.7588,-2.7587,-2.7599,-2.7609,-2.7619,-2.7493,-2.7492,-2.7492,0,0,-2.7814,-2.7794,-2.7809,-2.7793,-2.7768,-2.7741,-2.7745,-2.7711,-2.7695,-2.7703,-2.7659,-2.766,-2.7651,-2.7636,-2.7627,-2.7693,-2.7659,-2.7692,-2.7741,-2.7755,-2.7764,-2.7772,-2.7795,-2.7804,-2.7697,-2.7697,-2.7697,0,-2.7861,-2.7861,-2.782,-2.7827,-2.7819,-2.7768,-2.7784,-2.777,-2.7744,-2.774,-2.7717,-2.7707,-2.7687,-2.7702,-2.7719,-2.7713,-2.7717,-2.7695,-2.7766,-2.7773,-2.778,-2.7802,-2.7811,-2.7701,-2.77,-2.77,-2.77,0,-2.7921,-2.7922,-2.7937,-2.7914,-2.7909,-2.792,-2.7882,-2.7882,-2.7855,-2.7831,-2.7841,-2.7816,-2.7803,-2.7805,-2.7778,-2.7818,-2.7805,-2.7775,-2.7733,-2.7796,-2.7815,-2.7824,-2.7707,-2.7705,-2.7704,-2.7703,0,0,-2.8025,-2.7983,-2.7989,-2.7979,-2.795,-2.795,-2.796,-2.7949,-2.795,-2.7935,-2.7942,-2.7939,-2.7912,-2.7902,-2.7874,-2.7887,-2.7941,-2.7855,-2.7854,-2.7871,-2.7984,-2.8006,-2.8016,-2.792,-2.7922,-2.7923,-2.7986,0,-2.8084,-2.8098,-2.8064,-2.8086,-2.8088,-2.8042,-2.8051,-2.8035,-2.8014,-2.8012,-2.7989,-2.7987,-2.7952,-2.7946,-2.7957,-2.7932,-2.7963,-2.7928,-2.7926,-2.7927,-2.7932,-2.8026,-2.8049,-2.8109,-2.7994,-2.7995,-2.7996,0,-2.8154,-2.8144,-2.8167,-2.814,-2.8139,-2.8147,-2.8136,-2.8135,-2.8117,-2.8101,-2.8093,-2.8061,-2.807,-2.8032,-2.8045,-2.8021,-2.802,-2.8008,-2.801,-2.8006,-2.7963,-2.8025,-2.8128,-2.8137,-2.8008,-2.8007,-2.8006,0,-2.8228,-2.8221,-2.8234,-2.8227,-2.8195,-2.8202,-2.8189,-2.8169,-2.8166,-2.8157,-2.8154,-2.8146,-2.8141,-2.8136,-2.8104,-2.8079,-2.8121,-2.8079,-2.8108,-2.8109,-2.8116,-2.8116,-2.8219,-2.8118,-2.8118,-2.8118,-2.8117,0,-2.8296,-2.8312,-2.8267,-2.8274,-2.8292,-2.8254,-2.8272,-2.8255,-2.8238,-2.8243,-2.8204,-2.8209,-2.8167,-2.8168,-2.8143,-2.8158,-2.8156,-2.8144,-2.8136,-2.8146,-2.8148,-2.8142,-2.8137,-2.812,-2.812,-2.8119,-2.8119,0,-2.8379,-2.835,-2.8361,-2.8332,-2.8325,-2.8339,-2.8313,-2.832,-2.8299,-2.8306,-2.8305,-2.8271,-2.8271,-2.8239,-2.8232,-2.8215,-2.8241,-2.8226,-2.8247,-2.8241,-2.8272,-2.8269,-2.8374,-2.8386,-2.8279,-2.828,-2.8281,0,-2.8424,-2.8435,-2.8408,-2.8409,-2.8398,-2.84,-2.8397,-2.8361,-2.836,-2.8343,-2.8352,-2.8349,-2.8344,-2.8347,-2.8321,-2.8317,-2.8301,-2.8339,-2.83,-2.8311,-2.8301,-2.8301,-2.8302,-2.8346,-2.8347,-2.8349,-2.8349,0,-2.8507,-2.8493,-2.849,-2.8483,-2.8481,-2.8474,-2.8464,-2.8467,-2.8429,-2.843,-2.843,-2.8427,-2.8421,-2.8419,-2.841,-2.8397,-2.8368,-2.8363,-2.8369,-2.8378,-2.8389,-2.8383,-2.8267,-2.8359,-2.8358,-2.8358,-2.8357,-2.8357,-2.8571,-2.858,-2.8563,-2.8562,-2.8552,-2.8545,-2.855,-2.8531,-2.8531,-2.8523,-2.8503,-2.8507,-2.8492,-2.8477,-2.8468,-2.8471,-2.8453,-2.8462,-2.8464,-2.8466,-2.8472,-2.8391,-2.847,-2.8469,-2.8469,-2.8469,-2.8469,0,-2.8651,-2.8639,-2.8639,-2.8628,-2.8628,-2.8602,-2.8591,-2.8593,-2.8597,-2.8585,-2.8583,-2.8584,-2.8583,-2.856,-2.8557,-2.8564,-2.855,-2.8564,-2.8562,-2.856,-2.8489,-2.8483,-2.8575,-2.8575,-2.8575,-2.8575,-2.8575,-2.8575,-2.8693,-2.8707,-2.8692,-2.8701,-2.8689,-2.8692,-2.8689,-2.8683,-2.8674,-2.8677,-2.8677,-2.8662,-2.8647,-2.8642,-2.8641,-2.8634,-2.8635,-2.8653,-2.8642,-2.8575,-2.8565,-2.8555,-2.8549,-2.8654,-2.8654,-2.8713,-2.8713,-2.8714]},{"header":{"parameterUnit":"m.s-1","parameterCategory":1,"la1":30.2991,"la2":30.254,"lo1":-89.0895,"lo2":-89.0444,"dy":0.0017,"dx":0.0017,"nx":28,"ny":28,"refTime":"2023-08-24T03:00:00:Z","depth":0,"parameterNumber":3,"parameterNumberName":"V-component_of_WINDS"},"data":[0,0,0,0,0,0,0,0,0,0,0,0,0,0,0,0,0,0,0,0,0,0,0,0,0,0,0,0,0,0,0,0,0,0,0,0,0,0,0,0,0,0,0,0,0,0,0,0,0,0,0,0,0,0,0,0,0,0,3.897,3.8971,0,3.9058,3.9059,3.906,3.9124,3.9125,3.9125,3.9126,3.9212,3.9213,3.9215,0,0,0,0,0,0,0,0,0,0,0,0,0,3.8853,3.8855,3.8969,3.8971,3.8972,3.9058,3.9059,3.906,3.9124,3.9125,3.9125,3.9126,3.9211,3.9213,3.9215,0,0,0,0,0,0,0,0,0,0,0,0,0,3.8919,3.8856,3.8969,3.9014,3.9019,3.9058,3.9059,3.906,3.9124,3.9125,3.9125,3.9126,3.921,3.9213,3.9215,3.9215,0,0,3.9224,3.9225,0,0,0,0,0,0,0,0,3.8915,3.8923,3.9006,3.9011,3.9017,3.9081,3.905,3.9112,3.9124,3.9084,3.9126,3.9127,3.9167,3.9173,3.9188,3.9219,3.9223,3.9224,3.9225,3.9227,3.9227,0,0,0,0,0,0,0,3.891,3.892,3.9004,3.9007,3.9014,3.9029,3.9039,3.9062,3.912,3.9087,3.9092,3.9102,3.917,3.9185,3.919,3.9224,3.9224,3.9226,3.9228,3.9229,3.9262,3.9261,0,0,0,0,0,0,3.8899,3.8915,3.9002,3.9007,3.8967,3.903,3.9042,3.9059,3.912,3.913,3.9101,3.9105,3.918,3.9187,3.9194,3.9199,3.9227,3.9229,3.9231,3.9262,3.9261,3.9261,0,0,0,0,0,0,3.8897,3.8906,3.8998,3.8963,3.8975,3.9031,3.9051,3.9061,3.9076,3.913,3.914,3.9106,3.9181,3.919,3.921,3.9202,3.923,3.9233,3.9263,3.9262,3.9261,3.9207,0,0,0,0,0,0,3.8893,3.8905,3.8906,3.8962,3.8977,3.9013,3.905,3.9062,3.9081,3.9086,3.9138,3.9147,3.9183,3.9206,3.9213,3.9207,3.9235,3.9264,3.9263,3.9261,3.921,3.9204,3.92,0,0,0,0,0,3.8889,3.8886,3.8906,3.8916,3.898,3.9013,3.9021,3.9064,3.908,3.9081,3.9116,3.9145,3.9202,3.9207,3.9216,3.921,3.9265,3.9263,3.9262,3.9212,3.9205,3.92,0,0,0,0,0,0,3.8825,3.8894,3.8917,3.8932,3.8967,3.9024,3.9026,3.9055,3.9084,3.9088,3.9138,3.9149,3.9164,3.9189,3.9194,3.9214,3.9237,3.9237,3.9197,3.9191,3.9186,3.9179,3.9237,0,0,0,0,0,3.8813,3.8836,3.8894,3.8902,3.8919,3.897,3.8986,3.9016,3.9052,3.9067,3.9103,3.9137,3.9163,3.9178,3.9205,3.9214,3.9227,3.9215,3.9209,3.9205,3.9204,3.9212,3.9208,3.9255,3.9255,3.9255,0,0,3.8788,3.8829,3.884,3.8891,3.8921,3.8942,3.8981,3.9002,3.9018,3.9069,3.9091,3.9119,3.916,3.9175,3.9184,3.9197,3.9194,3.9203,3.9199,3.9201,3.921,3.9206,3.9202,3.9254,3.9254,3.9255,0,0,3.8754,3.8787,3.8798,3.8828,3.8874,3.8908,3.8911,3.8964,3.8986,3.9009,3.9049,3.9068,3.9111,3.9139,3.9159,3.9138,3.9166,3.9145,3.9118,3.9125,3.9121,3.9118,3.9111,3.9108,3.9144,3.9144,3.9144,0,3.8717,3.8752,3.88,3.8819,3.884,3.889,3.8902,3.8928,3.8979,3.8993,3.9007,3.9064,3.9095,3.9118,3.9113,3.9127,3.9132,3.9139,3.9118,3.9116,3.9114,3.9107,3.9105,3.9141,3.9141,3.9142,3.9142,0,3.8704,3.8728,3.8731,3.8782,3.8804,3.8819,3.8869,3.8885,3.8914,3.8946,3.897,3.9009,3.9045,3.9053,3.908,3.908,3.9087,3.9109,3.9133,3.9106,3.9101,3.9099,3.9137,3.9138,3.9139,3.914,0,0,3.8631,3.871,3.871,3.8734,3.879,3.8809,3.8826,3.8863,3.8877,3.8911,3.8927,3.8963,3.8985,3.9007,3.9038,3.9045,3.9027,3.9067,3.9068,3.9058,3.903,3.9013,3.901,3.9046,3.9046,3.9046,3.9027,0,3.8605,3.8641,3.8685,3.8705,3.8728,3.8777,3.8792,3.8828,3.8859,3.8882,3.8917,3.8942,3.8968,3.8982,3.8991,3.9027,3.9022,3.9029,3.9061,3.9061,3.9049,3.9007,3.8989,3.8969,3.9025,3.9025,3.9025,0,3.8579,3.8613,3.8636,3.8692,3.8703,3.8716,3.8755,3.8777,3.8818,3.884,3.8867,3.8901,3.8922,3.8944,3.8973,3.8977,3.8993,3.9013,3.9013,3.9017,3.9041,3.901,3.8964,3.8961,3.9022,3.9022,3.9022,0,3.8524,3.8575,3.8596,3.8616,3.868,3.8689,3.8716,3.8758,3.8778,3.8812,3.8825,3.886,3.8879,3.8905,3.8947,3.8959,3.8972,3.8998,3.8991,3.899,3.8991,3.899,3.8946,3.9001,3.9001,3.9001,3.9001,0,3.849,3.8502,3.8573,3.8585,3.8601,3.8652,3.8665,3.8696,3.8734,3.8754,3.8797,3.8814,3.887,3.8893,3.8927,3.8947,3.8954,3.8973,3.8982,3.8969,3.8967,3.898,3.8982,3.9,3.9001,3.9001,3.9001,0,3.8431,3.8478,3.8504,3.8564,3.858,3.8588,3.864,3.8654,3.8688,3.8713,3.8721,3.8775,3.8805,3.8851,3.8894,3.8917,3.8931,3.8945,3.8917,3.8923,3.8914,3.8914,3.8877,3.8874,3.893,3.8929,3.8929,0,3.8406,3.8417,3.8479,3.8496,3.8522,3.8549,3.857,3.8621,3.8642,3.8691,3.8699,3.8733,3.8763,3.8809,3.8852,3.8885,3.8901,3.8885,3.8906,3.8893,3.8901,3.89,3.8901,3.888,3.8879,3.8879,3.8878,0,3.8357,3.8381,3.8411,3.845,3.8475,3.8507,3.8542,3.8553,3.8611,3.8632,3.8664,3.8688,3.8734,3.8767,3.8807,3.8834,3.8866,3.8872,3.8872,3.8859,3.8843,3.8852,3.8904,3.8872,3.8872,3.8873,3.8873,3.8873,3.8315,3.8327,3.8374,3.8406,3.8438,3.847,3.8487,3.8525,3.8553,3.8595,3.8623,3.8654,3.8697,3.8754,3.878,3.8805,3.8818,3.8818,3.8819,3.8818,3.8814,3.8839,3.8812,3.8813,3.8813,3.8813,3.8813,0,3.8269,3.8302,3.8331,3.8379,3.8405,3.8435,3.8475,3.8494,3.8521,3.8559,3.8588,3.8626,3.8659,3.8706,3.8742,3.8753,3.8769,3.8761,3.876,3.8766,3.8799,3.8796,3.8748,3.8748,3.8748,3.8748,3.8748,3.8748,3.8248,3.8271,3.83,3.834,3.8373,3.8405,3.8426,3.8455,3.8486,3.8527,3.8555,3.8586,3.8627,3.8667,3.8699,3.8712,3.8723,3.8711,3.8728,3.8758,3.8764,3.8769,3.8766,3.8713,3.8713,3.8694,3.8693,3.8693]}]]